Location: M?digepalle
(16.1753°N, 80.3496°E)
Time: 07:33:44
(UTC+00:00)

Cosmos 2278 - Pass Details

Date: 29 October 2020
Orbit: 841 x 851 km, 71.1° (Epoch: 27 November)

Event Time Altitude Azimuth Distance (km) Brightness Sun altitude
Rises 23:40:22 0° 349° (N) 3,389 6.6 -13.7°
Reaches altitude 10° 23:42:51 10° 354° (N) 2,453 5.9 -13.1°
Maximum altitude 23:48:23 58° 73° (ENE) 972 4.4 -11.8°
Drops below altitude 10° 23:53:54 10° 151° (SSE) 2,452 6.7 -10.5°
Sets 23:56:23 0° 155° (SSE) 3,387 7.4 -9.9°
